Holland, MI

8:09 AM EST on December 16, 2017 (GMT -0500)
Tulip City

Weather History for KBIV - November, 2013

Change the Weather History Date:

Monday, November 4, 2013

  Actual Average Record
Temperature  
Mean Temperature 47 °F 46 °F  
Max Temperature 54 °F 54 °F 73 °F (2008)
Min Temperature 39 °F 38 °F 17 °F (1951)
Degree Days  
Heating Degree Days 18 19  
Month to date heating degree days 73 73  
Since 1 July heating degree days 567 598  
Cooling Degree Days 0 0  
Month to date cooling degree days 0 0  
Year to date cooling degree days 811 693  
Moisture  
Dew Point 35 °F    
Average Humidity 65    
Maximum Humidity 79    
Minimum Humidity 50    
Precipitation  
Precipitation 0.00 in 0.16 in 1.80 in (1967)
Month to date precipitation 0.41 0.60  
Year to date precipitation 34.77 31.30  
Sea Level Pressure  
Sea Level Pressure 30.29 in    
Wind  
Wind Speed 12 mph (SE)    
Max Wind Speed 23 mph    
Max Gust Speed 31 mph    
Visibility 10 miles    
Events      
T = Trace of Precipitation, MM = Missing Value Source: NWS Daily Summary

Daily Weather History Graph

Daily Weather History Graph

Search for Another Location

Airport or City:

Trip Planner

Search our weather history database for the weather conditions in past years. The results will help you decide how hot, cold, wet, or windy it might be!

Date:

Astronomy

Nov. 04, 2013 Rise Set
Actual Time 7:22 AM EST 5:32 PM EST
Civil Twilight 6:52 AM EST 6:02 PM EST
Nautical Twilight 6:19 AM EST 6:36 PM EST
Astronomical Twilight 5:46 AM EST 7:08 PM EST
Moon 8:33 AM EST (11/4) 6:35 PM EST (11/4)
Length of Visible Light 11h 09m
Length of Day
10h 10m
New Moon, 2% of the Moon is Illuminated
Nov 4
New Moon
Nov 10
First Quarter
Nov 17
Full
Nov 25
Last Quarter
Dec 2
New

Hourly Weather History & Observations

Time (EST) Temp. Windchill Dew Point Humidity Pressure Visibility Wind Dir Wind Speed Gust Speed Precip Events Conditions
12:53 AM 39.9 °F 32.5 °F 33.1 °F 77% 30.38 in 10.0 mi SE 12.7 mph - N/A   Clear
1:53 AM 39.0 °F 31.8 °F 34.0 °F 82% 30.38 in 10.0 mi ESE 11.5 mph - N/A   Clear
2:53 AM 39.9 °F 31.8 °F 34.0 °F 79% 30.38 in 10.0 mi SE 15.0 mph - N/A   Clear
3:53 AM 39.9 °F 32.1 °F 34.0 °F 79% 30.36 in 10.0 mi SE 13.8 mph 19.6 mph N/A   Clear
4:53 AM 39.0 °F 32.3 °F 33.1 °F 79% 30.37 in 10.0 mi SE 10.4 mph - N/A   Clear
5:53 AM 39.9 °F 33.9 °F 33.1 °F 77% 30.37 in 10.0 mi SE 9.2 mph - N/A   Clear
6:53 AM 39.0 °F 32.3 °F 32.0 °F 76% 30.36 in 10.0 mi SE 10.4 mph - N/A   Clear
7:53 AM 39.9 °F 32.9 °F 32.0 °F 73% 30.35 in 10.0 mi SE 11.5 mph - N/A   Clear
8:53 AM 41.0 °F 34.3 °F 32.0 °F 70% 30.35 in 10.0 mi SE 11.5 mph - N/A   Clear
9:53 AM 44.1 °F 37.1 °F 33.1 °F 65% 30.34 in 10.0 mi SE 15.0 mph 19.6 mph N/A   Clear
10:53 AM 50.0 °F - 34.0 °F 54% 30.33 in 10.0 mi SE 13.8 mph 21.9 mph N/A   Clear
11:53 AM 48.9 °F - 33.1 °F 54% 30.31 in 10.0 mi SSE 16.1 mph 23.0 mph N/A   Clear
12:53 PM 51.1 °F - 34.0 °F 52% 30.27 in 10.0 mi SSE 16.1 mph 29.9 mph N/A   Clear
1:53 PM 54.0 °F - 37.0 °F 53% 30.23 in 10.0 mi SSE 11.5 mph 18.4 mph N/A   Clear
2:53 PM 53.1 °F - 36.0 °F 52% 30.23 in 10.0 mi South 13.8 mph 25.3 mph N/A   Clear
3:53 PM 52.0 °F - 36.0 °F 54% 30.22 in 10.0 mi SSE 15.0 mph 23.0 mph N/A   Clear
4:53 PM 50.0 °F - 34.0 °F 54% 30.22 in 10.0 mi SE 13.8 mph 20.7 mph N/A   Partly Cloudy
5:53 PM 48.9 °F - 34.0 °F 56% 30.21 in 10.0 mi SE 13.8 mph - N/A   Scattered Clouds
6:53 PM 48.9 °F - 34.0 °F 56% 30.22 in 10.0 mi SSE 11.5 mph 20.7 mph N/A   Overcast
7:53 PM 48.9 °F - 35.1 °F 59% 30.23 in 10.0 mi SE 9.2 mph - N/A   Overcast
8:53 PM 48.9 °F - 37.0 °F 64% 30.23 in 10.0 mi SSE 10.4 mph - N/A   Overcast
9:53 PM 48.9 °F - 37.9 °F 66% 30.22 in 10.0 mi South 6.9 mph - N/A   Overcast
10:53 PM 50.0 °F - 39.9 °F 68% 30.22 in 10.0 mi South 10.4 mph - N/A   Overcast
11:53 PM 51.1 °F - 39.9 °F 66% 30.22 in 10.0 mi South 11.5 mph - N/A   Overcast